Weather History for Deadhorse, AK

Change the Weather History Date:

Monday, April 22, 2013

  Actual Average Record
Temperature  
Mean Temperature 15 °F -  
Max Temperature 27 °F 12 °F 37 °F (1998)
Min Temperature 3 °F 0 °F -24 °F (1987)
Degree Days  
Heating Degree Days 50    
Moisture  
Dew Point 10 °F    
Average Humidity 77    
Maximum Humidity 81    
Minimum Humidity 73    
Precipitation  
Precipitation 0.00 in - - ()
Sea Level Pressure  
Sea Level Pressure 30.21 in    
Wind  
Wind Speed 16 mph (SW)    
Max Wind Speed 20 mph    
Max Gust Speed -    
Visibility 10 miles    
Events Snow    
Averages and records for this station are not official NWS values.
T = Trace of Precipitation, MM = Missing Value Source: NWS Daily Summary

Daily Weather History Graph

Daily Weather History Graph

Search for Another Location

Airport:

Trip Planner

Search our weather history database for the weather conditions in past years. The results will help you decide how hot, cold, wet, or windy it might be!

Date:

Astronomy

Apr. 22, 2013 Rise Set
Actual Time 5:09 AM AKDT 10:38 PM AKDT
Civil Twilight 3:22 AM AKDT 12:31 AM AKDT
Nautical Twilight Sun does not rise Sun does not rise
Astronomical Twilight Sun does not rise Sun does not rise
Moon 6:01 PM AKDT (4/22) 5:04 AM AKDT (4/22)
Length of Visible Light 21h 08m
Length of Day
17h 29m
Waxing Gibbous, 89% of the Moon is Illuminated
Apr 22
Waxing Gibbous
Apr 25
Full
May 2
Last Quarter
May 9
New
May 17
First Quarter

Hourly Weather History & Observations

Time (AKDT) Temp. Windchill Dew Point Humidity Pressure Visibility Wind Dir Wind Speed Gust Speed Precip Events Conditions
12:53 AM 6.1 °F -11.6 °F 1.0 °F 80% 30.32 in 10.0 mi SW 15.0 mph - N/A   Clear
1:53 AM 3.9 °F -14.3 °F -0.9 °F 80% 30.30 in 10.0 mi SW 15.0 mph - N/A   Clear
2:53 AM 3.9 °F -13.7 °F -2.0 °F 76% 30.29 in 10.0 mi SW 13.8 mph - N/A   Clear
3:53 AM 5.0 °F -13.0 °F -0.9 °F 76% 30.27 in 10.0 mi SW 15.0 mph - N/A   Clear
4:53 AM 5.0 °F -13.6 °F -0.9 °F 76% 30.25 in 10.0 mi SW 16.1 mph - N/A   Clear
5:53 AM 6.1 °F -12.2 °F -0.9 °F 73% 30.24 in 10.0 mi SW 16.1 mph - N/A   Mostly Cloudy
6:53 AM 6.1 °F -13.3 °F -0.0 °F 76% 30.23 in 10.0 mi SW 18.4 mph - N/A   Scattered Clouds
7:53 AM 8.1 °F -9.0 °F 1.0 °F 73% 30.23 in 10.0 mi SW 15.0 mph - N/A   Scattered Clouds
8:53 AM 10.0 °F -7.6 °F 3.9 °F 76% 30.22 in 10.0 mi SW 17.3 mph - N/A   Scattered Clouds
9:53 AM 12.9 °F -3.9 °F 6.1 °F 74% 30.21 in 10.0 mi SW 17.3 mph - N/A   Scattered Clouds
10:53 AM 15.1 °F -2.0 °F 8.1 °F 74% 30.21 in 10.0 mi SW 19.6 mph - N/A   Clear
11:53 AM 17.1 °F 1.5 °F 10.0 °F 74% 30.20 in 10.0 mi SW 17.3 mph - N/A   Clear
12:53 PM 19.0 °F 3.6 °F 12.0 °F 74% 30.20 in 10.0 mi SW 18.4 mph - N/A   Clear
1:53 PM 21.9 °F 6.9 °F 16.0 °F 78% 30.20 in 10.0 mi WSW 19.6 mph - N/A   Mostly Cloudy
2:53 PM 24.1 °F 10.6 °F 18.0 °F 77% 30.20 in 10.0 mi WSW 17.3 mph - N/A   Overcast
3:53 PM 25.0 °F 10.9 °F 19.9 °F 81% 30.19 in 10.0 mi SW 19.6 mph - N/A   Overcast
4:53 PM 26.1 °F 12.3 °F 19.9 °F 78% 30.19 in 10.0 mi WSW 19.6 mph - N/A   Overcast
5:53 PM 26.1 °F 13.6 °F 21.0 °F 81% 30.18 in 10.0 mi SW 16.1 mph - N/A   Overcast
6:53 PM 27.0 °F 13.9 °F 21.0 °F 78% 30.16 in 10.0 mi SW 18.4 mph - N/A   Overcast
7:53 PM 27.0 °F 14.7 °F 21.0 °F 78% 30.16 in 10.0 mi SW 16.1 mph - N/A   Overcast
9:53 PM 27.0 °F 13.9 °F 21.0 °F 78% 30.14 in 10.0 mi WSW 18.4 mph - N/A   Mostly Cloudy
10:53 PM 26.1 °F 12.7 °F 21.0 °F 81% 30.14 in 10.0 mi SW 18.4 mph - N/A   Mostly Cloudy
11:53 PM 25.0 °F 11.3 °F 19.0 °F 78% 30.14 in 9.0 mi SW 18.4 mph - 0.00 in Snow Light Snow